Simultaneous Nadir Overpasses (SNOs) Predictions

Prediction of SNOs between AQUA and METOP-A Satellite Orbit:

Table of predicted SNOs for the next 14.0 days since TLE Epoch: 9/14/2013
Index Date (AQUA) Time (AQUA) Lat,Lon (AQUA) SZA (AQUA ) Date (METOP-A) Time (METOP-A) Lat,Lon (METOP-A) SZA (METOP-A ) Distance(km) Time Diff (sec)
1 09/14/2013 04:29:40 -73.83, -73.18 109.56 09/14/2013 04:28:47 -73.84, -73.11 109.55 2.62 53
2 09/14/2013 05:19:09 73.91, 94.28 70.54 09/14/2013 05:19:26 73.91, 94.39 70.53 3.41 17
3 09/14/2013 06:08:48 -74.60, -99.69 108.73 09/14/2013 06:09:53 -74.61, -96.51 108.79 93.82 65
4 09/17/2013 00:03:57 -73.81, -6.71 108.51 09/17/2013 00:03:11 -73.84, -6.70 108.47 3.39 46
5 09/17/2013 00:53:26 73.90, 160.74 71.60 09/17/2013 00:53:50 73.91, 160.78 71.61 1.78 24
6 09/19/2013 19:38:13 -73.81, 59.72 107.42 09/19/2013 19:37:34 -73.84, 59.69 107.39 3.06 39
7 09/19/2013 20:27:42 73.90,-132.84 72.69 09/19/2013 20:28:13 73.90,-132.83 72.68 0.21 31
8 09/22/2013 15:12:30 -73.83, 126.11 106.31 09/22/2013 15:11:58 -73.83, 126.07 106.31 1.19 32
9 09/22/2013 16:01:59 73.92, -66.46 73.80 09/22/2013 16:02:36 73.94, -66.34 73.81 3.87 37
10 09/25/2013 10:46:47 -73.87,-167.55 105.18 09/25/2013 10:46:21 -73.86,-167.44 105.19 3.47 26
11 09/25/2013 11:36:15 73.92, -0.01 74.88 09/25/2013 11:37:00 73.92, 0.02 74.88 0.84 45




NCC Satellite Simultaneous Nadir Overpasses (SNOs) Prediction Service
